Regional Weather Roundup
Issued by NWS

Home | Current Version | Previous Version | Graphics & Text | Print | Product List | Glossary On
Versions: 1 2 3 4 5 6 7 8 9 10 11 12 13 14 15 16 17 18 19 20 21 22 23 24 25 26 27 28 29 30 31 32 33 34 35 36 37 38 39 40 41 42 43 44 45 46 47 48 49 50
000
ASUS45 KABQ 271801
RWRNM
NEW MEXICO REGIONAL WEATHER ROUNDUP
NATIONAL WEATHER SERVICE ALBUQUERQUE NM
1200 PM MDT FRI MAY 27 2016

NOTE: "FAIR" MEANS FEW OR NO CLOUDS BELOW 12,000 FEET AGL WITH NO
       SIGNIFICANT WEATHER OR OBSTRUCTIONS TO VISION.

      THIS PRODUCT IS RELEASED AS TWO VERSIONS.  ONE VERSION NEAR
      THE TOP OF THE HOUR CONTAINING PRELIMINARY DATA FROM ALBUQUERQUE
      AND OTHER STATIONS.  A FINAL VERSION WITH ADDITIONAL DATA IS
      ISSUED ABOUT 10 MINUTES AFTER THE HOUR.

NMZ501-503-504-510>518-271900-
NORTHWEST PLATEAU/NORTHCENTRAL MOUNTAINS

CITY           SKY/WX    TMP DP  RH WIND       PRES   REMARKS
FARMINGTON     FAIR      67  28  23 NW21G29   29.92F
6HR MIN TEMP:  43; 6HR MAX TEMP:  67;

SANTA FE       FAIR      64  31  28 S8        29.93F
6HR MIN TEMP:  45; 6HR MAX TEMP:  64;

TAOS           PTSUNNY   57  30  35 W15       29.96F

$$
NMZ402-403-502-505>509-271900-
WESTCENTRAL MOUNTAINS/SOUTHWEST MOUNTAINS

CITY           SKY/WX    TMP DP  RH WIND       PRES   REMARKS
GALLUP         FAIR      63  28  26 W10       30.01F
6HR MIN TEMP:  33; 6HR MAX TEMP:  63;

GRANTS         FAIR      66  24  20 NW17G24   30.01F
SILVER CITY      N/A     68  19  15 NW16G23   30.02F

$$
NMZ407-409-411-412-271900-
SOUTHERN DESERTS

CITY           SKY/WX    TMP DP  RH WIND       PRES   REMARKS
LORDSBURG      FAIR      72  27  18 N5G14     29.97F
DEMING         FAIR      76  26  15 W14G21    29.95F
6HR MIN TEMP:  48; 6HR MAX TEMP:  76;

HOLLOMAN AFB   FAIR      74  26  17 N9        29.91F
ALAMOGORDO     FAIR      73  25  16 W10       29.93F
T OR C         FAIR      73  25  16 N9G17     29.93F
6HR MIN TEMP:  54; 6HR MAX TEMP:  74;


$$
NMZ519>523-271900-
CENTRAL VALLEYS/CENTRAL HIGHLANDS

CITY           SKY/WX    TMP DP  RH WIND       PRES   REMARKS
ALBUQUERQUE    FAIR      67  28  23 CALM      29.93F
6HR MIN TEMP:  45; 6HR MAX TEMP:  69;

DOUBLE EAGLE   MOSUNNY   66  30  26 W9G16     29.96F
CLINES CORNERS FAIR      63  26  24 NW25G32   29.95S
6HR MIN TEMP:  41; 6HR MAX TEMP:  63;

BELEN          FAIR      73  22  14 W13G22    29.93F
6HR MIN TEMP:  48; 6HR MAX TEMP:  73;

SOCORRO        NOT AVBL

$$
NMZ524>526-539-540-271900-
SOUTHCENTRAL MOUNTAINS

CITY           SKY/WX    TMP DP  RH WIND       PRES   REMARKS
RUIDOSO        NOT AVBL

$$
NMZ527>531-271900-
NORTHEAST HIGHLANDS/NORTHEAST PLAINS

CITY           SKY/WX    TMP DP  RH WIND       PRES   REMARKS
LAS VEGAS      PTSUNNY   63  26  24 NW8G26    29.93S
6HR MIN TEMP:  38; 6HR MAX TEMP:  64;

RATON          FAIR      58  35  42 SW9       29.88F
6HR MIN TEMP:  41; 6HR MAX TEMP:  58; 6HR PCP: TRACE;

CLAYTON        PTSUNNY   65  35  33 W20G38    29.83F
6HR MIN TEMP:  48; 6HR MAX TEMP:  65;


$$
NMZ532>537-271900-
EASTCENTRAL PLAINS

CITY           SKY/WX    TMP DP  RH WIND       PRES   REMARKS
TUCUMCARI      FAIR      69  33  26 CALM      29.83F
6HR MIN TEMP:  45; 6HR MAX TEMP:  70;

CANNON AFB     FAIR      72  31  22 W20G26    29.83F
6HR MIN TEMP:  47; 6HR MAX TEMP:  72;

CLOVIS AIRPORT FAIR      72  34  25 W17G30    29.84S

$$
NMZ028-029-538-271900-
SOUTHEAST PLAINS

CITY           SKY/WX    TMP DP  RH WIND       PRES   REMARKS
ROSWELL        FAIR      80  23  12 VRB5G18   29.84F
6HR MIN TEMP:  48; 6HR MAX TEMP:  81;

ARTESIA        FAIR      81  27  13 W17G24    29.85F
CARLSBAD       FAIR      83  18   9 W16G25    29.83F
6HR MIN TEMP:  58; 6HR MAX TEMP:  83;

HOBBS          SUNNY     79  23  12 SW15G29   29.86F


$$




USA.gov is the U.S. government's official web portal to all federal, state and local government web resources and services.